Погода в Александровском

Россия / Томская область     56°44′29″N   85°23′17″E
темп.,
°C
ветер,
м/с
пор.,
м/с
влажн.,
%
обл.,
%
осадки,
мм/ч
давл.,
гПа
погр.,
м
23 апреля, пт
пт2301:00−3ссв28955 0.0 1045160
04:00−4ссв27965 0.0 1045124
07:00−3св26945 0.0 1046152
10:00+2св35745 0.0 1046603
13:00+4св456299 0.1 10451559
16:00+5ссв4559100 0.1 10431429
19:00+3ссв377221 0.1 1043572
22:00−1ссв28925 0.0 1043143
24 апреля, сб
сб2401:00−2ссв26945 0.0 1042109
04:00−3ссв26955 0.0 1040113
07:00−2ссв279014 0.0 1039192
10:00+3ссв3572100 0.0 1037740
13:00+5ссв3460100 0.0 10351319
16:00+6с3456100 0.0 10331425
19:00+4с2476100 0.1 1032104
22:000с118795 0.0 103310
25 апреля, вс
вс2501:00−1сз118776 0.0 103210
04:00−1з1188100 0.0 103210
07:000з138966 0.0 103277
10:00+4зсз236959 0.0 1032724
13:00+7з235863 0.0 10311387
16:00+8зсз235569 0.0 10301469
19:00+6сз13706 0.0 103094
22:00+2юз11795 0.0 103110
26 апреля, пн
пн2601:00+1ююз11825 0.0 103110
04:000ююз11855 0.0 103010
07:00+1ю11835 0.0 103036
10:00+7ююз23645 0.0 1030525
13:00+10ююз235318 0.0 10281491
16:00+11ююз344783 0.0 10261816
19:00+9ю2562100 0.0 1025165
22:00+5ююв310755 0.0 1024230
27 апреля, вт
вт2701:00+4ююв31079100 0.0 1022233
04:00+5ююв41372100 0.0 1018465
07:00+4ююз51081100 0.3 1016755
10:00+8зюз587369 0.4 1016993
13:00+11з69526 1.1 10161810
16:00+12з484388 0.2 10162320
19:00+11з384740 0.4 10171868
22:00+6ююз2670100 0.0 101796